Погода в Тырети 1-й

Россия / Иркутская область     53°40′08″N   102°18′57″E
темп.,
°C
ветер,
м/с
пор.,
м/с
влажн.,
%
обл.,
%
осадки,
мм/ч
давл.,
гПа
погр.,
м
8 марта, пн
пн823:00−3сз2398100 0.0 101698
02:00−5зсз129295 0.0 101921
05:00−6ссз6148467 0.3 1021687
08:00−10зсз4108382 0.3 1027283
11:00−7зсз3680100 0.0 1027631
14:00−5зсз127176 0.0 1027711
17:00−6ююв238022 0.0 1025366
20:00−10юв368660 0.0 1026110
9 марта, вт
вт923:00−9юв5138397 0.0 1022347
02:00−8юв5138999 0.0 1019405
05:00−11юв359472 0.0 1017104
08:00−13юв229560 0.0 101721
11:00−6зюз1186100 0.0 1017159
14:00−1ю1196100 0.0 1017130
17:000ююз359757 0.0 1018259
20:00−2ссз6139054 0.0 1023416
10 марта, ср
ср1023:00−8сз238432 0.0 102825
02:00−12сз118447 0.0 103021
05:00−12ююв228575 0.0 103021
08:00−13юв238783 0.0 103038
11:00−6юв5108075 0.0 1026524
14:00−3юв588438 0.0 1022520
17:00−2юв478836 0.0 1020435
20:00−6вюв339422 0.0 102142
11 марта, чт
чт1123:00−8юв239613 0.0 102321
02:00−9вюв119731 0.0 102321
05:00−8юв229788 0.0 102250
08:00−10вюв369784 0.0 1022108
11:00−4юв5108829 0.0 1017338
14:000ююв599130 0.0 1013374
17:000юв369854 0.0 1013263
20:00−2вюв229460 0.0 101522
12 марта, пт
пт1223:00−5юв2291100 0.0 101621
02:00−6вюв239096 0.0 101627
05:00−9с229156 0.0 101721
08:00−4ссз4129478 0.0 1019443
11:00−2ссз5995100 1.1 1022765
14:00−1с1392100 1.3 1023590
17:00−1ююв348888 0.0 1021551
20:00−5юв379256 0.0 1021135